Regional Weather Roundup
Issued by NWS

Home | Current Version | Previous Version | Text Only | Print | Product List | Glossary Off
Versions: 1 2 3 4 5 6 7 8 9 10 11 12 13 14 15 16 17 18 19 20 21 22 23 24 25 26 27 28 29 30 31 32 33 34 35 36 37 38 39 40 41 42 43 44 45 46 47 48 49 50

000
ASUS43 KMPX 282301
RWRMN
WEATHER ROUNDUP FOR MINNESOTA
NATIONAL WEATHER SERVICE TWIN CITIES/CHANHASSEN MN
600 PM CDT SUN MAY 28 2017


NOTE: "FAIR" INDICATES FEW OR NO CLOUDS BELOW 12,000 FEET WITH NO
SIGNIFICANT WEATHER AND/OR OBSTRUCTIONS TO VISIBILITY. N/A MEANS
CURRENT SKY AND/OR WEATHER CONDITIONS ARE NOT AVAILABLE.

MNZ060>063-068>070-290000-
   Twin Cities Metro

CITY           SKY/WX    TMP DP  RH WIND       PRES   REMARKS
TWIN CITIES    CLOUDY    70  43  37 NW14G22   29.73S
ST PAUL        CLOUDY    68  44  42 W16       29.73S
CRYSTAL        CLOUDY    68  43  40 W17G25    29.72S
BLAINE         MOSUNNY   70  45  40 W16G23    29.72F
LAKEVILLE      MOSUNNY   68  46  45 W13G22    29.74R
EDEN PRAIRIE   SUNNY     71  43  36 NW12G26   29.73S
SOUTH ST PAUL  CLOUDY    67  42  39 NW15G21   29.73S
LAKE ELMO      PTSUNNY   64  48  55 W12       29.73F
$$
MNZ001>005-007-008-013>017-022>024-027-028-290000-
   Northwest Minnesota

CITY           SKY/WX    TMP DP  RH WIND       PRES   REMARKS
BEMIDJI        PTSUNNY   60  47  62 W18       29.68F
HALLOCK        CLOUDY    57  46  67 NW20G28   29.73R
ROSEAU         PTSUNNY   54  48  82 NW13G22   29.69R
WARROAD        MOSUNNY   61  48  63 NW13      29.67R
CROOKSTON      HVY RAIN  57  52  82 NW16G24   29.73R
FOSSTON        PTSUNNY   59  50  72 W12       29.71F
DETROIT LAKES  CLOUDY    59  50  72 W9        29.75F
MOORHEAD       CLOUDY    63  45  51 NW17      29.75F
PARK RAPIDS    CLOUDY    56  47  71 W12       29.72F
MAHNOMEN       CLOUDY    57  50  77 W6        29.72S
$$
MNZ006-009>011-018-025>026-290000-
   North Central Minnesota

CITY           SKY/WX    TMP DP  RH WIND       PRES   REMARKS
BAUDETTE       PTSUNNY   61  51  70 NW12G18   29.64S
FLAG ISLAND    DRIZZLE   55  52  88 NW8       29.65S
INTL FALLS     RAIN      57  50  77 W7        29.62S
WASKISH        CLOUDY    57  52  82 W13G20    29.66S
BIG FORK       RAIN      55  52  88 CALM      29.66S
LONGVILLE      CLOUDY    55  52  88 W3        29.70F
GRAND RAPIDS   CLOUDY    56  50  80 VRB3      29.69F
CRANE LAKE     CLOUDY    52  52 100 CALM      29.63S
ORR            PTSUNNY   61  46  59 W10G16    29.61S
COOK           CLOUDY    61  48  63 W13       29.64R
WALKER         MOCLDY    55  48  78 W7        29.69F
$$
MNZ012-019>021-037-290000-
   Northeast Minnesota

CITY           SKY/WX    TMP DP  RH WIND       PRES   REMARKS
DULUTH         MOSUNNY   62  47  57 W18G26    29.65S
ELY            RAIN      52  50  93 W9        29.64R
HIBBING        CLOUDY    53  51  93 W6        29.65S
EVELETH        MOSUNNY   58  47  68 W13G18    29.66S
DULUTH HARBOR  CLOUDY    63  52  67 W12       29.65F
TWO HARBORS    CLOUDY    57  54  88 W3        29.62F
SILVER BAY     CLOUDY    55  54  94 SW3       29.62F
GRAND MARAIS     N/A     49  47  93 SW5       29.62F
G MARAIS ARPRT CLOUDY    52  45  76 CALM      29.63F
$$
MNZ029>031-032-039>041-046>048-054>057-064-290000-
   West Central Minnesota

CITY           SKY/WX    TMP DP  RH WIND       PRES   REMARKS
FERGUS FALLS   CLOUDY    61  48  63 N9        29.75F
WHEATON        LGT RAIN  57  46  67 W10       29.82F
MORRIS         RAIN      57  46  67 NW36G54   29.81R
ALEXANDRIA     PTSUNNY   59  45  59 NW24G44   29.77R THUNDER
ELBOW LAKE     LGT RAIN  60  45  58 NW16G31   29.79R
WADENA         PTSUNNY   57  46  67 NW12      29.75R
GLENWOOD       MOSUNNY   66  43  42 W15G29    29.76R
BENSON         CLOUDY    64  43  45 N38G59    29.82R HAZE
ORTONVILLE     CLOUDY    59  45  58 NW22G32   29.84R
MADISON        PTSUNNY   70  45  40 NW30G41   29.83R
WILLMAR        FAIR      72  39  30 NW23G31   29.76S
$$
MNZ033>034-036-042>043-049>051-058-059-290000-
   Central Minnesota

CITY           SKY/WX    TMP DP  RH WIND       PRES   REMARKS
ST CLOUD       SUNNY     67  47  48 NW14G24   29.73S
SAUK CENTRE    FAIR      67  45  44 W10       29.73F
PAYNESVILLE    MOSUNNY   68  44  41 NW12G18   29.75S
AITKIN         CLOUDY    64  46  52 W12G17    29.67F THUNDER
PINE RIVER     LGT RAIN  54  46  76 NW6G20    29.73F
BRAINERD       TSTM      53  47  79 NW9       29.74R
STAPLES        CLOUDY    59  43  55 N16       29.72F
LONG PRAIRIE   FAIR      66  43  42 W15       29.73F
LITTLE FALLS   PTSUNNY   64  41  42 NW13G23   29.72S
LITCHFIELD     SUNNY     72  46  40 NW14G20   29.76R
BUFFALO        LGT RAIN  65  47  51 W13G20    29.76R
MAPLE LAKE     MOSUNNY   66  52  59 W8        29.75S
HUTCHINSON     MOSUNNY   71  47  43 W17       29.76S
$$
MNZ037-044-045-052-053-290000-
   East Central Minnesota

CITY           SKY/WX    TMP DP  RH WIND       PRES   REMARKS
PRINCETON      SUNNY     68  46  45 W12       29.73R
MORA           CLOUDY    55  52  88 W3        29.74S
CAMBRIDGE      MOSUNNY   64  50  59 NW8G16    29.71R
RUSH CITY      PTSUNNY   61  51  70 NW6       29.73R
MOOSE LAKE     MOSUNNY   61  45  55 NW8G17    29.67S
HINCKLEY       FAIR      59  52  77 W9        29.71S
CLOQUET        MOSUNNY   61  46  59 W10G21    29.67S
MCGREGOR       MOSUNNY   63  48  59 W8G17     29.68F
$$
MNZ071>073-080-081-089-090-097-098-290000-
   Southwest Minnesota

CITY           SKY/WX    TMP DP  RH WIND       PRES   REMARKS
MONTEVIDEO     MOSUNNY   72  39  30 N28G48    29.79R
CANBY          MOSUNNY   68  41  37 W20G31    29.82S
MARSHALL       SUNNY     71  40  32 NW33G45   29.79F
REDWOOD FALLS  MOSUNNY   71  38  29 NW13G18   29.76F
OLIVIA         MOSUNNY   73  41  31 W23G33    29.76S
PIPESTONE      MOSUNNY   72  27  18 NW14G23   29.83F
WINDOM         MOSUNNY   72  36  26 NW21G33   29.81R
WORTHINGTON    SUNNY     72  38  29 NW20G30   29.83F
JACKSON        SUNNY     72  36  26 W20G36    29.82S
TRACY          SUNNY     74  38  27 NW23G36   29.81F
SLAYTON        MOSUNNY   72  36  27 NW26G36   29.83S
$$
MNZ065>067-074>077-082>085-091>093-290000-
   South Central Minnesota

CITY           SKY/WX    TMP DP  RH WIND       PRES   REMARKS
NEW ULM        SUNNY     72  39  30 NW20      29.76S
ST JAMES       MOSUNNY   73  37  27 W20G30    29.79R
FAIRMONT       SUNNY     72  40  31 NW17G31   29.79S
GLENCOE        MOSUNNY   71  49  46 W15       29.75R
FARIBAULT      MOSUNNY   72  45  37 NW16G22   29.75S
OWATONNA       SUNNY     73  36  25 W24G32    29.75S
WASECA         MOSUNNY   72  39  30 W22G31    29.77S
ALBERT LEA     PTSUNNY   75  39  27 NW8G18    29.76F
$$
MNZ078>079-086>088-094>096-290000-
   Southeast Minnesota

CITY           SKY/WX    TMP DP  RH WIND       PRES   REMARKS
ROCHESTER      PTSUNNY   71  42  35 W23       29.75S
RED WING       PTSUNNY   72  37  28 NW13G24   29.71R
STANTON        MOSUNNY   71  45  40 NW18G25   29.73R
DODGE CENTER   MOSUNNY   70  39  32 W14G25    29.76S
WINONA         SUNNY     73  43  33 NW12G20   29.72F
AUSTIN         MOSUNNY   72  39  30 W15G28    29.76S
PRESTON        MOSUNNY   70  40  33 W14G28    29.76F
$$
ABBREVIATIONS USED IN REMARKS
   TC - TEMPERATURES IN CELSIUS
  WCI - WIND CHILL INDEX
   HX - HEAT INDEX
  VSB - VISIBILITY
$$




USA.gov is the U.S. government's official web portal to all federal, state and local government web resources and services.